Location: Unspecified
(45.7810°N, 0.0000°E)
Time: 01:04:07
(UTC+00:00)

ISS - Pass Details

Date: 29 July 2019
Orbit: 410 x 421 km, 51.6° (Epoch: 25 August)

Event Time Altitude Azimuth Distance (km) Brightness Sun altitude
Rises 19:47:49 0° 290° (WNW) 2,376 2.3 -3.1°
Reaches altitude 10° 19:50:06 10° 301° (WNW) 1,509 1.2 -3.4°
Maximum altitude 19:53:07 29° 5° (N) 797 -2.0 -3.8°
Drops below altitude 10° 19:56:08 10° 68° (ENE) 1,504 -1.3 -4.3°
Enters shadow 19:58:38 -1° 81° (E) 2,456 -0.3 -4.7°
